Location: Bürgle
(48.1466°N, 10.5793°E)
Time: 12:32:09
(UTC+00:00)

Daily predictions for brighter satellites

Satellite Brightness Start Highest point End
(mag) Time Altitude Azimuth Time Altitude Azimuth Time Altitude Azimuth
Meteor 1-27 Rocket 4.2 18:08:32 10° NNW 18:14:02 68° W 18:19:35 10° S
Cosmos 2061 Rocket 4.2 18:08:08 10° SSE 18:14:21 56° E 18:20:38 10° NNE
Cosmos 1937 Rocket 3.6 18:09:56 10° NNW 18:15:12 70° ENE 18:20:29 10° SSE
COSMOS 2428 3.8 18:10:57 10° SSE 18:15:13 22° E 18:19:29 10° NE
Cosmos 1818 4.3 18:11:25 10° S 18:16:08 31° ESE 18:20:55 10° NE
Cosmos 1726 2.6 18:15:09 10° SSE 18:17:27 23° E 18:19:45 10° NE
Cosmos 2233 Rocket 4.1 18:11:59 10° SSE 18:17:55 55° E 18:23:55 10° NNE
Cosmos 468 Rocket 4.3 18:14:27 10° SSW 18:19:32 74° WNW 18:24:42 10° NNE
Lacrosse 4 Rocket 2.2 18:16:10 10° NNW 18:20:15 38° NE 18:24:19 10° ESE
Cosmos 1943 Rocket 3.8 18:16:39 10° N 18:20:27 18° NE 18:24:13 10° E
Meteor 2-4 Rocket 3.9 18:14:31 10° N 18:20:28 71° ENE 18:26:21 10° SSE
USA 59 Rocket 1.1 18:18:10 10° NNW 18:21:20 28° NE 18:25:20 10° E
Cosmos 2292 Rocket 3.3 18:17:11 10° N 18:21:35 84° W 18:25:00 10° S
Cosmos 372 Rocket 4.1 18:17:54 10° NNW 18:23:06 86° WSW 18:28:18 10° SSE
ADEOS 3.6 18:18:45 10° SSE 18:23:58 87° ENE 18:29:13 10° NNW
Cosmos 841 Rocket 3.5 18:19:33 10° S 18:24:41 63° ESE 18:29:48 10° NNE
Intercosmos 24 4.4 18:23:07 10° NNW 18:26:37 59° W 18:30:28 10° S
PAYLOAD B 4.4 18:21:54 10° SSE 18:27:23 61° ENE 18:32:55 10° N
Cosmos 1328 Rocket 4.2 18:25:32 10° N 18:29:27 34° ENE 18:33:22 10° SE
Meteor 1-4 Rocket 3.7 18:28:33 10° NNE 18:30:14 15° ENE 18:31:20 12° E
Aureole 1 Rocket 4.0 18:26:31 10° NNW 18:30:55 46° WSW 18:34:24 10° S
USA 308 2.2 18:30:38 10° N 18:31:17 14° NNE 18:31:35 13° NE
Cosmos 1674 3.2 18:29:04 10° N 18:32:06 30° ENE 18:35:05 10° SE
Terra 3.9 18:31:44 10° ENE 18:32:52 11° NE 18:34:00 10° NE
CZ-4B DEB 4.2 18:27:29 10° SSE 18:33:01 84° ENE 18:38:33 10° NNW
Cosmos 1743 2.7 18:29:34 10° S 18:33:02 49° E 18:36:30 10° NNE
Tsikada Rocket 4.0 18:30:12 10° N 18:36:29 87° E 18:42:49 10° S
Cosmos 2278 Rocket 3.2 18:31:49 10° NNW 18:36:48 30° NE 18:41:07 13° ESE
NOSS 2-1 (C) 4.2 18:34:30 10° NNW 18:37:51 36° NE 18:41:26 14° ESE
Kosmos-1783 4.2 18:36:25 10° S 18:38:09 16° SE 18:38:15 16° SE
Meteor 1-18 Rocket 4.3 18:33:13 10° N 18:39:11 78° ENE 18:45:04 10° SSE
CZ-4B R/B 3.3 18:35:18 10° SSE 18:40:42 58° ENE 18:46:00 10° N
CZ-4B R/B 2.7 18:36:58 10° SSE 18:40:42 82° ENE 18:44:40 10° NNW
Genesis I 3.5 18:37:33 10° SW 18:40:57 60° NW 18:44:25 10° NNE
Iridium 4 Rocket 2.9 18:37:07 10° N 18:41:22 68° E 18:45:28 10° S
Cosmos 2016 Rocket 4.3 18:37:47 10° SSW 18:43:51 69° W 18:49:59 10° N
Resurs 1-3 4.3 18:40:36 10° S 18:44:50 55° W 18:49:07 10° NNW
USA 290 4.0 18:43:19 10° N 18:45:43 19° NE 18:47:00 15° E
CARTOSAT-1 3.5 18:42:17 10° SSE 18:46:29 64° ENE 18:50:43 10° N
TSX-5 3.7 18:43:41 10° NNW 18:46:43 43° NE 18:48:41 18° ESE
SPOT 5 4.0 18:45:11 14° ESE 18:48:00 24° ENE 18:51:41 10° N
SPOT 1/Viking Rocket 4.0 18:43:12 10° S 18:48:21 64° WSW 18:53:31 10° NNW
ATLAS 2AS CENTAUR R/B 4.1 18:46:40 10° WSW 18:53:25 40° NNW 18:59:57 10° NE
USA 306 3.7 18:51:46 10° S 18:54:09 19° SE 18:54:09 19° SE
Okean 3 Rocket 4.5 18:51:02 11° SSE 18:54:41 28° E 18:58:31 10° NNE
ATLAS CENTAUR R/B 3.9 18:51:40 10° WNW 18:56:27 42° SW 19:03:39 10° SSE
ARGOS Delta rocket 4.1 18:51:46 10° S 18:56:58 79° WSW 19:01:56 10° NNW
USA 215 4.3 18:52:28 10° ENE 18:57:15 21° SE 19:02:00 10° S
Cosmos 1151 Rocket 3.9 18:53:26 10° NNW 18:57:35 50° W 19:01:40 10° S
MOS 1-B 4.4 18:52:05 10° SSE 18:57:47 64° ENE 19:03:31 10° N
Okean O Rocket 1.9 18:54:28 14° SE 18:58:07 49° ENE 19:02:24 10° N
Cosmos 2360 Rocket 3.2 18:52:44 10° SW 18:58:14 51° NW 19:03:44 10° NNE
Cosmos 1340 2.8 18:57:03 10° SSW 19:00:17 61° WNW 19:03:32 10° N
USA 186 1.9 18:58:34 10° S 19:01:44 76° WSW 19:04:59 10° NNW
Resurs 01 Rocket 1.6 18:58:14 10° SSE 19:02:40 88° WSW 19:07:08 10° NNW
GRACE-FO 1 4.5 19:03:08 10° SSE 19:06:36 62° E 19:10:06 10° N
Cosmos 2237 Rocket 3.2 19:04:47 18° SE 19:06:55 23° ESE 19:11:12 10° NE
GRACE-FO 2 4.4 19:03:32 10° SSE 19:07:00 63° E 19:10:30 10° N
Cosmos 2322 Rocket 3.8 19:02:01 10° WSW 19:07:17 37° NW 19:12:36 10° NNE
MOS 1 Rocket 4.4 19:06:49 21° ESE 19:09:06 30° ENE 19:13:35 10° N
Helios 1A 3.8 19:05:09 10° N 19:09:07 51° WNW 19:13:02 10° SSW
Cosmos 1814 Rocket 4.1 19:05:52 10° S 19:11:01 53° ESE 19:16:09 10° NNE
ACS3 Solar Sail 2.0 19:05:10 12° SSE 19:11:03 62° ENE 19:17:22 10° N
BlueWalker 3 1.9 19:10:06 10° WNW 19:13:51 73° NNE 19:15:32 31° ESE
NOSS 2-1 (E) 3.5 19:10:13 10° NW 19:13:56 66° NE 19:16:32 26° SE
Cosmos 44 Rocket 3.5 19:09:28 10° NW 19:14:12 64° WSW 19:17:37 18° SSE
Okean-O 3.1 19:12:12 25° SE 19:14:19 42° ENE 19:18:29 10° N
Cosmos 2333 Rocket 3.6 19:09:47 10° SW 19:15:14 42° NW 19:20:44 10° NNE
Cosmos 1515 Rocket 3.8 19:11:22 10° N 19:15:34 46° ENE 19:17:32 27° SE
Feng Yun 1-1 Rocket 4.4 19:10:33 10° SSE 19:16:16 81° WSW 19:22:11 10° NNW
Cosmos 2219 Rocket 2.7 19:13:25 10° SW 19:19:02 63° WNW 19:24:42 10° NNE
Sich 1 4.5 19:20:26 20° ENE 19:20:26 20° ENE 19:22:57 10° NE
MetOp-B 4.5 19:17:45 24° SE 19:20:38 46° ENE 19:25:45 10° N
CSL-04 Rocket 3.8 19:17:30 10° S 19:22:53 75° WSW 19:28:15 10° NNW
NOSS 2-1 (D) 3.4 19:20:14 10° NW 19:23:58 83° NE 19:26:15 30° SE
BREEZE-M DEB (TANK) 1.7 19:22:44 10° WSW 19:24:47 89° NNE 19:25:16 53° ENE
Cosmos 1842 3.0 19:22:21 10° N 19:25:58 87° W 19:27:54 26° S
Cosmos 1766 Rocket 3.9 19:27:48 10° SSW 19:32:06 67° W 19:36:29 10° N
USA 267 3.8 19:29:00 19° E 19:33:36 51° NNE 19:39:55 10° NW
Cosmos 1500 Rocket 4.4 19:34:22 31° E 19:34:22 31° E 19:37:58 10° NNE
SWARM A 4.3 19:34:27 53° SE 19:34:58 61° E 19:38:27 10° N
DELTA 2 DEB (DPAF) 4.1 19:31:07 10° NNE 19:35:10 47° E 19:36:00 41° SE
Cosmos 1980 4.1 19:30:06 10° S 19:35:20 40° ESE 19:40:36 10° NE
Cosmos 2369 Rocket 4.1 19:33:49 10° N 19:37:26 17° NE 19:39:53 13° ENE
BREEZE-M R/B 4.1 19:33:36 10° W 19:38:14 90° SSE 19:49:01 21° ESE
Meteor 2-17 Rocket 4.5 19:33:10 10° NNW 19:39:14 80° W 19:44:32 14° S
Cosmos 2322 3.8 19:34:10 10° SSW 19:39:48 76° WNW 19:45:30 10° NNE
Meteor 1-13 Rocket 4.3 19:34:11 10° N 19:40:05 67° ENE 19:43:01 30° SSE
USA 276 2.4 19:39:04 10° WNW 19:41:31 53° NNW 19:41:31 53° NNW
USA 32 4.3 19:37:19 10° N 19:42:23 46° ENE 19:43:42 38° ESE
Spot 2 Rocket 4.2 19:41:51 32° E 19:42:50 35° ENE 19:47:22 10° N
Cosmos 1400 Rocket 4.4 19:39:24 10° NNW 19:42:51 32° W 19:46:15 10° SSW
MOS 1 4.2 19:42:10 26° SSE 19:45:32 85° ENE 19:51:16 10° NNW
PSLV R/B 3.7 19:44:57 42° S 19:46:01 71° WSW 19:49:36 10° NNW
Cosmos 1707 3.0 19:44:00 10° NNW 19:47:30 56° W 19:48:45 34° SSW
CZ-4 R/B 4.0 19:45:24 10° SW 19:48:02 18° W 19:50:42 10° NW
Cosmos 1315 Rocket 2.9 19:44:20 10° N 19:48:13 51° ENE 19:48:17 51° ENE
Meteor 2-10 4.1 19:44:16 19° S 19:48:17 68° E 19:53:56 10° NNE
Cosmos 1428 Rocket 4.5 19:43:02 10° N 19:49:05 60° ENE 19:51:27 36° SE
Cosmos 1733 2.8 19:49:19 77° ENE 19:49:19 77° ENE 19:52:39 10° NNE
In-Cosmos 22 4.1 19:44:31 10° N 19:50:18 84° E 19:53:04 32° SSE
Cosmos 1570 Rocket 4.2 19:49:52 42° SE 19:50:46 46° ESE 19:55:49 10° NNE
Cosmos 1408 Rocket 3.5 19:50:27 53° SE 19:51:06 61° E 19:55:26 10° NNE
Cosmos 1536 2.8 19:55:08 34° SSW 19:56:41 71° W 20:00:31 10° N
Lacrosse 4 Rocket 3.1 19:54:36 10° NW 19:58:22 29° WSW 20:00:26 20° SSW
COSMOS 2428 3.0 19:53:14 10° SW 19:58:55 67° WNW 20:04:39 10° NNE
Cosmos 1818 4.3 19:54:07 10° WSW 19:59:28 54° NW 20:04:52 10° NNE
Cosmos 2195 Rocket 4.4 19:55:55 10° N 20:02:00 66° ENE 20:03:57 43° SE
Nadezhda 4 Rocket 4.0 19:55:45 10° N 20:02:01 83° W 20:05:35 28° S
Meteor 1-4 Rocket 4.2 19:59:57 10° NW 20:02:03 20° W 20:02:21 20° WSW
Meteor 1-23 Rocket 4.2 19:56:29 10° N 20:02:04 61° ENE 20:03:20 48° SE
Cosmos 1356 Rocket 4.2 19:58:04 10° NNW 20:02:06 48° W 20:03:51 29° SSW
SL-16 R/B 4.3 20:07:18 11° ENE 20:07:18 11° ENE 20:07:39 10° NE
Cosmos 1092 Rocket 4.1 19:57:56 10° N 20:04:10 58° ENE 20:05:52 44° SE
Cosmos 1943 Rocket 2.0 19:59:33 10° NNW 20:05:05 80° ENE 20:06:27 52° SE
Terra 1.7 20:09:10 64° ESE 20:09:34 68° ENE 20:14:16 10° N
SL-14 R/B 4.0 20:06:18 10° N 20:09:04 40° NNE 20:09:04 40° NNE
USA 59 Rocket 0.9 20:07:05 10° NW 20:10:53 45° SW 20:11:54 39° SSW
Cosmos 2026 Rocket 3.9 20:04:43 10° N 20:10:59 66° ENE 20:12:32 49° SE
Cosmos 1464 Rocket 4.3 20:05:28 10° SSW 20:11:43 69° W 20:18:06 10° N
Cosmos 158 Rocket 4.0 20:13:21 53° ENE 20:13:21 53° ENE 20:17:25 10° NNE
Cosmos 1805 Rocket 3.8 20:14:27 56° NE 20:14:27 56° NE 20:18:02 10° NNE
Meteor 1-11 Rocket 3.7 20:09:42 20° SSW 20:13:45 82° WNW 20:19:22 10° N
Ariane Rocket 3.1 20:14:46 54° E 20:15:01 55° ENE 20:19:58 10° N
CRYOSAT 2 4.2 20:10:27 10° N 20:15:23 85° E 20:16:11 63° S
SPOT 3 Rocket 3.6 20:17:15 55° E 20:17:30 56° ENE 20:22:33 10° N
Cosmos 1634 Rocket 4.1 20:17:04 50° ESE 20:17:44 52° E 20:23:50 10° NNE
Cosmos 1125 Rocket 3.5 20:12:34 10° NNW 20:17:47 78° WSW 20:18:45 59° S
Cosmos 839 Rocket 4.4 20:11:11 10° SSW 20:20:00 74° ESE 20:26:59 10° NE
USA 290 4.0 20:17:15 10° NW 20:19:44 29° W 20:19:44 29° W
ERS-1 Rocket 2.9 20:19:35 62° S 20:20:26 84° WSW 20:25:30 10° NNW
Cosmos 2278 Rocket 2.6 20:15:40 10° NW 20:21:12 55° WSW 20:22:57 39° SSW
Meteor 2-9 Rocket 4.1 20:20:43 37° SSW 20:22:56 80° WNW 20:28:22 10° N
BREEZE-M DEB (TANK) 4.3 20:20:15 10° WNW 20:23:49 84° NNE 20:26:06 44° E
SPOT 5 3.6 20:24:19 34° SW 20:25:48 45° W 20:30:13 10° NNW
IRS-1A Rocket 4.5 20:25:48 44° S 20:27:40 69° WSW 20:33:25 10° NNW
Cosmos 2034 Rocket 4.1 20:26:34 24° SSW 20:30:30 73° W 20:36:42 10° N
Celestis-02/Orion 38 4.4 20:28:56 10° NNE 20:34:00 81° E 20:34:00 81° E
Okean O Rocket 3.9 20:31:49 12° SW 20:34:38 20° W 20:37:55 10° NW
Cosmos 2208 Rocket 3.9 20:35:48 77° ENE 20:35:48 77° ENE 20:40:51 10° NNE
Cosmos 1627 Rocket 4.4 20:29:27 10° N 20:35:48 86° W 20:37:11 58° S
NOSS 0 Rocket 4.4 20:33:24 10° SW 20:39:33 60° NW 20:45:46 10° NNE
USA 215 3.1 20:34:29 10° ENE 20:41:03 70° SE 20:47:33 10° SW
Cosmos 1656 Rocket 4.1 20:40:56 10° NNW 20:46:20 49° NE 20:46:20 49° NE
MOS 1 Rocket 4.4 20:45:58 36° SW 20:47:01 41° W 20:51:54 10° NNW
Meteor 1-21 4.1 20:41:39 10° NNW 20:47:24 87° W 20:47:41 82° S
Cosmos 2228 Rocket 3.9 20:43:09 10° N 20:46:31 47° N 20:46:31 47° N
Meteor 2-12 Rocket 4.3 20:42:39 10° N 20:48:50 85° W 20:49:33 71° S
Cosmos 2237 Rocket 2.5 20:46:17 18° SW 20:50:28 64° WNW 20:56:05 10° NNE
BlueWalker 3 4.3 20:48:30 10° W 20:49:46 17° W 20:49:46 17° W
Cosmos 2297 4.1 20:48:37 10° NNW 20:53:48 50° NE 20:53:48 50° NE
ACS3 Solar Sail 3.6 20:50:28 11° SW 20:55:32 27° W 21:00:52 10° NNW
Sich 1 4.2 20:57:05 40° WNW 20:57:05 40° WNW 21:00:56 10° N
Cosmos 2279 Rocket 3.9 21:06:51 75° NE 21:06:51 75° NE 21:12:41 10° N
BREEZE-M DEB (TANK) 3.4 20:57:30 10° W 21:10:46 86° N 21:10:46 86° N
USA 267 3.1 21:16:21 80° SSW 21:16:24 80° SW 21:23:00 10° NW
Cosmos 2369 Rocket 2.7 21:16:53 10° NNW 21:21:39 56° NNE 21:21:39 56° NNE
NOSS 3-3 (A) 4.3 21:25:46 55° NNE 21:25:46 55° NNE 21:30:55 10° NE
SL-16 R/B 3.2 21:49:08 42° NNE 21:49:08 42° NNE 21:52:51 10° NNE
Terra 4.2 21:47:52 16° W 21:47:52 16° W 21:50:31 10° NW
Cosmos 1943 Rocket 4.2 21:44:38 10° WNW 21:47:58 17° W 21:47:58 17° W
NOSS 3-4 (A) 3.8 21:41:36 10° NW 21:47:59 80° NNW 21:47:59 80° NNW
NOSS 3-4 (C) 3.8 21:41:42 10° NW 21:48:05 80° NNW 21:48:05 80° NNW
Cosmos 2266 Rocket 4.4 21:50:20 10° NNW 21:55:30 60° NW 21:55:30 60° NW
USA 215 3.8 22:17:37 10° NE 22:23:58 55° NNW 22:30:19 10° W
ATLAS 2AS CENTAUR R/B 4.4 22:33:41 10° NW 22:39:32 28° NNE 22:43:40 16° ENE
Cosmos 2369 Rocket 4.4 23:01:46 10° NW 23:03:25 16° WNW 23:03:25 16° WNW
Cosmos 1980 Rocket 4.3 23:26:14 10° N 23:30:15 20° NE 23:31:54 17° ENE
SL-16 R/B 4.4 23:30:58 17° NW 23:32:18 18° NW 23:36:06 10° N
